Regional Weather Roundup
Issued by NWS

Home | Current Version | Previous Version | Text Only | Print | Product List | Glossary Off
Versions: 1 2 3 4 5 6 7 8 9 10 11 12 13 14 15 16 17 18 19 20 21 22 23 24 25 26 27 28 29 30 31 32 33 34 35 36 37 38 39 40 41 42 43 44 45 46 47 48 49 50

000
ASUS43 KOAX 171002
RWRNE

WEATHER ROUNDUP FOR NEBRASKA
NATIONAL WEATHER SERVICE OMAHA NE
500 AM CDT THU APR 17 2014

NOTES: SATELLITE DATA IS BEING USED TO AUGMENT CLOUD COVER ABOVE
       12000 FEET.
       "FAIR" INDICATES FEW OR NO CLOUDS BELOW 12,000 FEET WITH NO
       SIGNIFICANT WEATHER AND/OR OBSTRUCTIONS TO VISIBILITY.

  * THESE STATIONS DO NOT REPORT WEATHER SUCH AS RAIN...SNOW OR FOG.

NEZ001>004-019>022-054>056-171100-
NEBRASKA PANHANDLE

CITY           SKY/WX    TMP DP  RH WIND       PRES   REMARKS
SCOTTSBLUFF    CLOUDY    34  29  82 SE10      30.13F WCI  26
ALLIANCE       CLOUDY    31  27  85 S6        30.14F WCI  25
CHADRON        CLOUDY    32  29  88 E3        30.15S
KIMBALL        FOG       31  30  94 SE9       30.09F VSB 1   WCI  23
SIDNEY         CLOUDY    32  29  88 SE8       30.13S WCI  25
$$

NEZ057>060-069>072-079>082-171100-
SOUTHWEST NEBRASKA

CITY           SKY/WX    TMP DP  RH WIND       PRES   REMARKS
NORTH PLATTE   CLOUDY    30  23  75 NE8       30.22S WCI  22
IMPERIAL       CLOUDY    31  27  85 NE7       30.20S FOG     WCI  24
LEXINGTON      CLOUDY    32  26  80 N10       30.22S WCI  23
MCCOOK         CLOUDY    32  27  81 NE13      30.21F WCI  22
OGALLALA       CLOUDY    32  27  81 NE6       30.18S WCI  27
$$

NEZ005>010-023>029-035>040-094-171100-
NORTH CENTRAL NEBRASKA

CITY           SKY/WX    TMP DP  RH WIND       PRES   REMARKS
VALENTINE      PTCLDY    21  18  88 W3        30.25R
AINSWORTH      CLOUDY    26  23  87 W3        30.25R
BROKEN BOW     CLOUDY    28  23  81 N8        30.23R WCI  20
O`NEILL        CLOUDY    30  22  72 NW7       30.24S WCI  23
ORD            CLOUDY    30  23  75 N10       30.24R WCI  21
THEDFORD       CLOUDY    30  24  77 N6        30.22F WCI  24
$$

NEZ041-046>049-061>064-073>077-083>087-171100-
SOUTH CENTRAL NEBRASKA

CITY           SKY/WX    TMP DP  RH WIND       PRES   REMARKS
GRAND ISLAND   CLOUDY    32  24  72 N14       30.24S WCI  22
AURORA         CLOUDY    32  26  79 N14       30.22S WCI  22
HASTINGS       CLOUDY    32  24  72 N14       30.21S WCI  22
HEBRON         CLOUDY    33  26  72 N12       30.25R WCI  25
HOLDREGE       CLOUDY    32  25  77 N13       30.21F WCI  22
KEARNEY *      CLOUDY    30  25  80 N13       30.23S WCI  20
YORK           CLOUDY    32  27  80 N16G23    30.22S WCI  21
$$

NEZ011>018-030>034-042>045-171100-
NORTHEAST NEBRASKA

CITY           SKY/WX    TMP DP  RH WIND       PRES   REMARKS
NORFOLK        CLOUDY    30  22  72 NW17      30.23R WCI  18
ALBION         CLOUDY    31  23  72 N12       30.24R WCI  22
BLAIR          CLOUDY    32  25  76 NW15G23   30.20R WCI  21
COLUMBUS *     CLOUDY    30  21  69 NW16      30.24R WCI  19
FREMONT        CLOUDY    32  25  76 N13G22    30.22R WCI  22
TEKAMAH        CLOUDY    33  24  69 NW20      30.22R WCI  21
$$

NEZ050>053-065>068-078-088>093-171100-
SOUTHEAST NEBRASKA

CITY           SKY/WX    TMP DP  RH WIND       PRES   REMARKS
LINCOLN        CLOUDY    34  24  67 N15       30.25R WCI  24
OMAHA EPPLEY   CLOUDY    33  25  72 N15       30.23R WCI  23
BEATRICE       CLOUDY    34  26  73 N14G20    30.24R WCI  24
FALLS CITY     CLOUDY    36  28  73 NW12      30.21R WCI  28
NEBRASKA CITY  CLOUDY    34  28  77 NW14      30.22R WCI  25
PLATTSMOUTH    CLOUDY    34  26  73 NW15      30.21R WCI  24
$$

NEZ044-045-051>053-067-171100-
OMAHA AREA

CITY           SKY/WX    TMP DP  RH WIND       PRES   REMARKS
OMAHA EPPLEY   CLOUDY    33  25  72 N15       30.23R WCI  23
BLAIR          CLOUDY    32  25  76 NW15G23   30.20R WCI  21
FREMONT        CLOUDY    32  25  76 N13G22    30.22R WCI  22
MILLARD        CLOUDY    32  25  75 N9        30.23R WCI  25
OFFUTT AFB     CLOUDY    34  28  79 N10       30.22R WCI  26
PLATTSMOUTH    CLOUDY    34  26  73 NW15      30.21R WCI  24
WAHOO          CLOUDY    32  24  72 N15G21    30.23R WCI  22
$$



USA.gov is the U.S. government's official web portal to all federal, state and local government web resources and services.